Location: Sternwarte ZA, Rosenfeld-Brittheim
(48.2889°N, 8.6789°E)
Time: 19:47:35
(UTC+02:00)

ISS - Pass Details

Date: 18 July 2019
Orbit: 409 x 418 km, 51.6° (Epoch: 20 July)

Event Time Altitude Azimuth Distance (km) Brightness Sun altitude
Rises 01:27:59 0° 278° (W) 2,350 0.2 -20.6°
Reaches altitude 10° 01:30:08 10° 285° (WNW) 1,486 -0.8 -20.6°
Maximum altitude 01:33:21 44° 359° (N) 580 -2.6 -20.6°
Drops below altitude 10° 01:36:33 10° 74° (ENE) 1,481 -0.8 -20.6°
Sets 01:38:42 0° 81° (E) 2,342 0.2 -20.6°
